Time,TemperatureF,DewpointF,PressureIn,WindDirection,WindDirectionDegrees,WindSpeedMPH,WindSpeedGustMPH,Humidity,HourlyPrecipIn,Conditions,Clouds,dailyrainin,SolarRadiationWatts/m^2,SoftwareType,DateUTC
2013-05-20 00:03:00,56.0,56.0,-100.00,ESE,121,4.0,10.0,100,0.03,,,0.21,0.000000,,2013-05-20 04:03:00,
2013-05-20 00:13:00,56.0,56.0,-100.00,ESE,121,4.0,10.0,100,0.03,,,0.21,0.000000,,2013-05-20 04:13:00,
2013-05-20 00:23:00,56.0,56.0,-100.00,ESE,121,4.0,10.0,100,0.03,,,0.21,0.000000,,2013-05-20 04:23:00,
2013-05-20 00:53:00,56.0,56.0,-100.00,South,178,7.0,12.0,100,0.09,,,0.30,1.000000,,2013-05-20 04:53:00,
2013-05-20 01:02:00,56.0,56.0,-100.00,South,178,7.0,12.0,100,0.09,,,0.30,1.000000,,2013-05-20 05:02:00,
2013-05-20 01:12:00,56.0,56.0,-100.00,South,178,7.0,12.0,100,0.09,,,0.30,1.000000,,2013-05-20 05:12:00,
2013-05-20 01:22:00,56.0,56.0,-100.00,South,178,7.0,12.0,100,0.09,,,0.30,1.000000,,2013-05-20 05:22:00,
2013-05-20 01:52:00,56.0,56.0,-100.00,SSE,167,8.0,15.0,100,0.01,,,0.31,1.000000,,2013-05-20 05:52:00,
2013-05-20 02:01:00,56.0,56.0,-100.00,SSE,167,8.0,15.0,100,0.01,,,0.31,1.000000,,2013-05-20 06:01:00,
2013-05-20 02:11:00,56.0,56.0,-100.00,SSE,167,8.0,15.0,100,0.01,,,0.31,1.000000,,2013-05-20 06:11:00,
2013-05-20 02:21:00,56.0,56.0,-100.00,SSE,167,8.0,15.0,100,0.01,,,0.31,1.000000,,2013-05-20 06:21:00,
2013-05-20 02:52:00,57.0,57.0,-100.00,South,183,7.0,13.0,100,0.01,,,0.32,1.000000,,2013-05-20 06:52:00,
2013-05-20 03:02:00,57.0,57.0,-100.00,South,183,7.0,13.0,100,0.01,,,0.32,1.000000,,2013-05-20 07:02:00,
2013-05-20 03:12:00,57.0,57.0,-100.00,South,183,7.0,13.0,100,0.01,,,0.32,1.000000,,2013-05-20 07:12:00,
2013-05-20 03:21:00,57.0,57.0,-100.00,South,183,7.0,13.0,100,0.01,,,0.32,1.000000,,2013-05-20 07:21:00,
2013-05-20 03:52:00,56.0,56.0,-100.00,SW,235,3.0,10.0,100,0.00,,,0.32,1.000000,,2013-05-20 07:52:00,
2013-05-20 04:01:00,56.0,56.0,-100.00,SW,235,3.0,10.0,100,0.00,,,0.32,1.000000,,2013-05-20 08:01:00,
2013-05-20 04:11:00,56.0,56.0,-100.00,SW,235,3.0,10.0,100,0.00,,,0.32,1.000000,,2013-05-20 08:11:00,
2013-05-20 04:21:00,56.0,56.0,-100.00,SW,235,3.0,10.0,100,0.00,,,0.32,1.000000,,2013-05-20 08:21:00,
2013-05-20 04:52:00,56.0,56.0,-100.00,SW,229,6.0,13.0,100,0.00,,,0.32,1.000000,,2013-05-20 08:52:00,
2013-05-20 05:02:00,56.0,56.0,-100.00,SW,229,6.0,13.0,100,0.00,,,0.32,1.000000,,2013-05-20 09:02:00,
2013-05-20 05:12:00,56.0,56.0,-100.00,SW,229,6.0,13.0,100,0.00,,,0.32,1.000000,,2013-05-20 09:12:00,
2013-05-20 05:22:00,56.0,56.0,-100.00,SW,229,6.0,13.0,100,0.00,,,0.32,1.000000,,2013-05-20 09:22:00,
2013-05-20 05:53:00,55.0,55.0,-100.00,SW,228,5.0,11.0,100,0.00,,,0.32,1.000000,,2013-05-20 09:53:00,
2013-05-20 06:03:00,55.0,55.0,-100.00,SW,228,5.0,11.0,100,0.00,,,0.32,1.000000,,2013-05-20 10:03:00,
2013-05-20 06:12:00,55.0,55.0,-100.00,SW,228,5.0,11.0,100,0.00,,,0.32,1.000000,,2013-05-20 10:12:00,
2013-05-20 06:22:00,55.0,55.0,-100.00,SW,228,5.0,11.0,100,0.00,,,0.32,1.000000,,2013-05-20 10:22:00,
2013-05-20 06:52:00,57.0,57.0,-100.00,SW,218,3.0,10.0,100,0.00,,,0.32,10.000000,,2013-05-20 10:52:00,
2013-05-20 07:03:00,57.0,57.0,-100.00,SW,218,3.0,10.0,100,0.00,,,0.32,10.000000,,2013-05-20 11:03:00,
2013-05-20 07:12:00,57.0,57.0,-100.00,SW,218,3.0,10.0,100,0.00,,,0.32,10.000000,,2013-05-20 11:12:00,
2013-05-20 07:21:00,57.0,57.0,-100.00,SW,218,3.0,10.0,100,0.00,,,0.32,10.000000,,2013-05-20 11:21:00,
2013-05-20 07:52:00,56.0,56.0,-100.00,SW,215,4.0,7.0,100,0.00,,,0.32,63.000000,,2013-05-20 11:52:00,
2013-05-20 08:01:00,56.0,56.0,-100.00,SW,215,4.0,7.0,100,0.00,,,0.32,63.000000,,2013-05-20 12:01:00,
2013-05-20 08:12:00,56.0,56.0,-100.00,SW,215,4.0,7.0,100,0.00,,,0.32,63.000000,,2013-05-20 12:12:00,
2013-05-20 08:21:00,56.0,56.0,-100.00,SW,215,4.0,7.0,100,0.00,,,0.32,63.000000,,2013-05-20 12:21:00,
2013-05-20 08:52:00,57.0,57.0,-100.00,SW,231,4.0,8.0,100,0.00,,,0.32,130.000000,,2013-05-20 12:52:00,
2013-05-20 09:01:00,57.0,57.0,-100.00,SW,231,4.0,8.0,100,0.00,,,0.32,130.000000,,2013-05-20 13:01:00,
2013-05-20 09:11:00,57.0,57.0,-100.00,SW,231,4.0,8.0,100,0.00,,,0.32,130.000000,,2013-05-20 13:11:00,
2013-05-20 09:22:00,57.0,57.0,-100.00,SW,231,4.0,8.0,100,0.00,,,0.32,130.000000,,2013-05-20 13:22:00,
2013-05-20 09:52:00,59.0,59.0,-100.00,SSW,209,5.0,8.0,100,0.00,,,0.32,194.000000,,2013-05-20 13:52:00,
2013-05-20 10:01:00,59.0,59.0,-100.00,SSW,209,5.0,8.0,100,0.00,,,0.32,194.000000,,2013-05-20 14:01:00,
2013-05-20 10:11:00,59.0,59.0,-100.00,SSW,209,5.0,8.0,100,0.00,,,0.32,194.000000,,2013-05-20 14:11:00,
2013-05-20 10:22:00,59.0,59.0,-100.00,SSW,209,5.0,8.0,100,0.00,,,0.32,194.000000,,2013-05-20 14:22:00,
2013-05-20 10:52:00,59.0,59.0,-100.00,SW,227,6.0,9.0,99,0.00,,,0.32,203.000000,,2013-05-20 14:52:00,
2013-05-20 11:01:00,59.0,59.0,-100.00,SW,227,6.0,9.0,99,0.00,,,0.32,203.000000,,2013-05-20 15:01:00,
2013-05-20 11:12:00,59.0,59.0,-100.00,SW,227,6.0,9.0,99,0.00,,,0.32,203.000000,,2013-05-20 15:12:00,
2013-05-20 11:22:00,59.0,59.0,-100.00,SW,227,6.0,9.0,99,0.00,,,0.32,203.000000,,2013-05-20 15:22:00,
2013-05-20 11:53:00,63.0,61.0,-100.00,SW,231,8.0,13.0,93,0.00,,,0.32,450.000000,,2013-05-20 15:53:00,
2013-05-20 12:03:00,63.0,61.0,-100.00,SW,231,8.0,13.0,93,0.00,,,0.32,450.000000,,2013-05-20 16:03:00,
2013-05-20 12:13:00,63.0,61.0,-100.00,SW,231,8.0,13.0,93,0.00,,,0.32,450.000000,,2013-05-20 16:13:00,
2013-05-20 12:23:00,63.0,61.0,-100.00,SW,231,8.0,13.0,93,0.00,,,0.32,450.000000,,2013-05-20 16:23:00,
2013-05-20 12:53:00,67.0,62.0,-100.00,SSW,208,6.0,14.0,84,0.00,,,0.32,594.000000,,2013-05-20 16:53:00,
2013-05-20 13:03:00,67.0,62.0,-100.00,SSW,208,6.0,14.0,84,0.00,,,0.32,594.000000,,2013-05-20 17:03:00,
2013-05-20 13:12:00,67.0,62.0,-100.00,SSW,208,6.0,14.0,84,0.00,,,0.32,594.000000,,2013-05-20 17:12:00,
2013-05-20 13:22:00,67.0,62.0,-100.00,SSW,208,6.0,14.0,84,0.00,,,0.32,594.000000,,2013-05-20 17:22:00,
2013-05-20 13:53:00,69.0,62.0,-100.00,SW,233,7.0,17.0,79,0.00,,,0.32,846.000000,,2013-05-20 17:53:00,
2013-05-20 14:02:00,69.0,62.0,-100.00,SW,233,7.0,17.0,79,0.00,,,0.32,846.000000,,2013-05-20 18:02:00,
2013-05-20 14:12:00,69.0,62.0,-100.00,SW,233,7.0,17.0,79,0.00,,,0.32,846.000000,,2013-05-20 18:12:00,
2013-05-20 14:23:00,69.0,62.0,-100.00,SW,233,7.0,17.0,79,0.00,,,0.32,846.000000,,2013-05-20 18:23:00,
2013-05-20 14:55:00,69.0,62.0,-100.00,SW,231,9.0,19.0,78,0.00,,,0.32,860.000000,,2013-05-20 18:55:00,
2013-05-20 15:04:00,69.0,62.0,-100.00,SW,231,9.0,19.0,78,0.00,,,0.32,860.000000,,2013-05-20 19:04:00,
2013-05-20 15:11:00,69.0,62.0,-100.00,SW,231,9.0,19.0,78,0.00,,,0.32,860.000000,,2013-05-20 19:11:00,
2013-05-20 15:21:00,69.0,62.0,-100.00,SW,231,9.0,19.0,78,0.00,,,0.32,860.000000,,2013-05-20 19:21:00,
2013-05-20 15:53:00,70.0,62.0,-100.00,SSW,205,8.0,16.0,75,0.00,,,0.32,793.000000,,2013-05-20 19:53:00,
2013-05-20 16:02:00,70.0,62.0,-100.00,SSW,205,8.0,16.0,75,0.00,,,0.32,793.000000,,2013-05-20 20:02:00,
2013-05-20 16:12:00,70.0,62.0,-100.00,SSW,205,8.0,16.0,75,0.00,,,0.32,793.000000,,2013-05-20 20:12:00,
2013-05-20 16:21:00,70.0,62.0,-100.00,SSW,205,8.0,16.0,75,0.00,,,0.32,793.000000,,2013-05-20 20:21:00,
2013-05-20 16:52:00,67.0,60.0,-100.00,SW,228,8.0,17.0,79,0.00,,,0.31,653.000000,,2013-05-20 20:52:00,
2013-05-20 17:01:00,67.0,60.0,-100.00,SW,228,8.0,17.0,79,0.00,,,0.31,653.000000,,2013-05-20 21:01:00,
2013-05-20 17:11:00,67.0,60.0,-100.00,SW,228,8.0,17.0,79,0.00,,,0.31,653.000000,,2013-05-20 21:11:00,
2013-05-20 17:22:00,67.0,60.0,-100.00,SW,228,8.0,17.0,79,0.00,,,0.31,653.000000,,2013-05-20 21:22:00,
2013-05-20 17:53:00,65.0,59.0,-100.00,SSW,213,7.0,14.0,81,0.00,,,0.24,473.000000,,2013-05-20 21:53:00,
2013-05-20 18:02:00,65.0,59.0,-100.00,SSW,213,7.0,14.0,81,0.00,,,0.24,473.000000,,2013-05-20 22:02:00,
2013-05-20 18:13:00,65.0,59.0,-100.00,SSW,213,7.0,14.0,81,0.00,,,0.24,473.000000,,2013-05-20 22:13:00,
2013-05-20 18:23:00,65.0,59.0,-100.00,SSW,213,7.0,14.0,81,0.00,,,0.24,473.000000,,2013-05-20 22:23:00,
2013-05-20 18:53:00,63.0,58.0,-100.00,SW,232,7.0,14.0,84,0.00,,,0.19,289.000000,,2013-05-20 22:53:00,
2013-05-20 19:03:00,63.0,58.0,-100.00,SW,232,7.0,14.0,84,0.00,,,0.19,289.000000,,2013-05-20 23:03:00,
2013-05-20 19:12:00,63.0,58.0,-100.00,SW,232,7.0,14.0,84,0.00,,,0.19,289.000000,,2013-05-20 23:12:00,
2013-05-20 19:22:00,63.0,58.0,-100.00,SW,232,7.0,14.0,84,0.00,,,0.19,289.000000,,2013-05-20 23:22:00,
2013-05-20 19:53:00,60.0,58.0,-100.00,SW,234,8.0,13.0,93,0.00,,,0.18,114.000000,,2013-05-20 23:53:00,
2013-05-20 20:01:00,60.0,58.0,-100.00,SW,234,8.0,13.0,93,0.00,,,0.18,114.000000,,2013-05-21 00:01:00,
2013-05-20 20:11:00,60.0,58.0,-100.00,SW,234,8.0,13.0,93,0.00,,,0.18,114.000000,,2013-05-21 00:11:00,
2013-05-20 20:22:00,60.0,58.0,-100.00,SW,234,8.0,13.0,93,0.00,,,0.18,114.000000,,2013-05-21 00:22:00,
2013-05-20 20:52:00,58.0,58.0,-100.00,WSW,237,7.0,13.0,99,0.00,,,0.17,15.000000,,2013-05-21 00:52:00,
2013-05-20 21:01:00,58.0,58.0,-100.00,WSW,237,7.0,13.0,99,0.00,,,0.17,15.000000,,2013-05-21 01:01:00,
2013-05-20 21:12:00,58.0,58.0,-100.00,WSW,237,7.0,13.0,99,0.00,,,0.17,15.000000,,2013-05-21 01:12:00,
2013-05-20 21:22:00,58.0,58.0,-100.00,WSW,237,7.0,13.0,99,0.00,,,0.17,15.000000,,2013-05-21 01:22:00,
2013-05-20 21:53:00,60.0,60.0,-100.00,WSW,245,5.0,15.0,100,0.00,,,0.15,0.000000,,2013-05-21 01:53:00,
2013-05-20 22:02:00,60.0,60.0,-100.00,WSW,245,5.0,15.0,100,0.00,,,0.15,0.000000,,2013-05-21 02:02:00,
2013-05-20 22:11:00,60.0,60.0,-100.00,WSW,245,5.0,15.0,100,0.00,,,0.15,0.000000,,2013-05-21 02:11:00,
2013-05-20 22:21:00,60.0,60.0,-100.00,WSW,245,5.0,15.0,100,0.00,,,0.15,0.000000,,2013-05-21 02:21:00,
2013-05-20 22:52:00,58.0,58.0,-100.00,SW,227,5.0,8.0,100,0.00,,,0.14,0.000000,,2013-05-21 02:52:00,
2013-05-20 23:02:00,58.0,58.0,-100.00,SW,227,5.0,8.0,100,0.00,,,0.14,0.000000,,2013-05-21 03:02:00,
2013-05-20 23:11:00,58.0,58.0,-100.00,SW,227,5.0,8.0,100,0.00,,,0.14,0.000000,,2013-05-21 03:11:00,
2013-05-20 23:21:00,58.0,58.0,-100.00,SW,227,5.0,8.0,100,0.00,,,0.14,0.000000,,2013-05-21 03:21:00,
2013-05-20 23:54:00,58.0,58.0,-100.00,WNW,297,2.0,7.0,100,0.00,,,0.11,0.000000,,2013-05-21 03:54:00,